| time (UTC) | temp F | wind direction | speed knots | gust knots | rain 1hr in | rain 24hr in | rain mn in | humidity % | barometer mb |
| 20260502151305 | 65 | 290 | 0.0 | 0.0 | 0.00 | 0.00 | 0.00 | 72 | 1011.3 |
| 20260502122805 | 69 | 186 | 0.0 | 0.0 | 0.00 | 0.00 | 0.00 | 59 | 1010.6 |
| 20260502121306 | 70 | 186 | 0.0 | 0.0 | 0.00 | 0.00 | 0.00 | 60 | 1010.4 |
| 20260502115805 | 71 | 186 | 0.0 | 0.0 | 0.00 | 0.00 | 0.00 | 61 | 1010.1 |
| 20260502114305 | 71 | 186 | 0.0 | 0.0 | 0.00 | 0.00 | 0.00 | 55 | 1010.0 |
| 20260502112806 | 71 | 186 | 0.0 | 0.0 | 0.00 | 0.00 | 0.00 | 53 | 1009.7 |
| 20260502111304 | 72 | 186 | 0.0 | 0.0 | 0.00 | 0.00 | 0.00 | 54 | 1009.5 |
| 20260502105804 | 72 | 186 | 0.0 | 0.0 | 0.00 | 0.00 | 0.00 | 53 | 1009.2 |
| 20260502104305 | 73 | 186 | 0.0 | 0.0 | 0.00 | 0.00 | 0.00 | 52 | 1009.0 |
| 20260502102805 | 73 | 186 | 0.0 | 0.0 | 0.00 | 0.00 | 0.00 | 53 | 1008.8 |
| 20260502101305 | 74 | 186 | 0.0 | 0.0 | 0.00 | 0.00 | 0.00 | 50 | 1008.7 |
| 20260502091304 | 75 | 177 | 0.0 | 1.7 | 0.00 | 0.00 | 0.00 | 46 | 1007.9 |
| 20260502071305 | 80 | 195 | 1.7 | 2.6 | 0.00 | 0.00 | 0.00 | 45 | 1006.3 |
| 20260502065805 | 80 | 240 | 0.9 | 1.7 | 0.00 | 0.00 | 0.00 | 43 | 1006.3 |
| 20260502064304 | 80 | 197 | 2.6 | 6.1 | 0.00 | 0.01 | 0.00 | 46 | 1006.1 |
| 20260502062804 | 81 | 194 | 5.2 | 5.2 | 0.00 | 0.01 | 0.00 | 45 | 1005.9 |
| 20260502061305 | 82 | 192 | 4.3 | 5.2 | 0.00 | 0.01 | 0.00 | 44 | 1005.6 |
| 20260502055806 | 83 | 135 | 0.9 | 1.7 | 0.00 | 0.01 | 0.00 | 44 | 1005.4 |
| 20260502054304 | 84 | 235 | 1.7 | 2.6 | 0.00 | 0.01 | 0.00 | 42 | 1005.3 |
| 20260502052805 | 83 | 212 | 0.9 | 1.7 | 0.00 | 0.01 | 0.00 | 34 | 1005.2 |
| 20260502051304 | 83 | 24 | 2.6 | 6.1 | 0.00 | 0.01 | 0.00 | 36 | 1005.0 |
| 20260502045804 | 82 | 3 | 2.6 | 2.6 | 0.00 | 0.01 | 0.00 | 34 | 1005.0 |
| 20260502044305 | 82 | 27 | 6.1 | 8.7 | 0.00 | 0.01 | 0.00 | 34 | 1004.9 |
| 20260502042805 | 82 | 286 | 1.7 | 4.3 | 0.00 | 0.01 | 0.00 | 41 | 1004.7 |
| 20260502041304 | 82 | 31 | 5.2 | 7.8 | 0.00 | 0.01 | 0.00 | 35 | 1004.6 |
| 20260502035804 | 82 | 22 | 5.2 | 8.7 | 0.00 | 0.01 | 0.00 | 35 | 1004.6 |
| 20260502034305 | 82 | 358 | 4.3 | 5.2 | 0.00 | 0.02 | 0.00 | 34 | 1004.5 |
| 20260502032805 | 83 | 263 | 4.3 | 6.1 | 0.00 | 0.02 | 0.00 | 34 | 1004.2 |
| 20260502031304 | 82 | 339 | 1.7 | 4.3 | 0.00 | 0.02 | 0.00 | 39 | 1004.0 |
| 20260502025804 | 81 | 263 | 5.2 | 7.0 | 0.00 | 0.02 | 0.00 | 45 | 1003.9 |
| 20260502024305 | 80 | 248 | 1.7 | 5.2 | 0.00 | 0.04 | 0.00 | 46 | 1003.8 |
| 20260502022805 | 80 | 215 | 1.7 | 8.7 | 0.00 | 0.08 | 0.00 | 45 | 1003.7 |
| 20260502021304 | 79 | 222 | 0.9 | 1.7 | 0.00 | 0.08 | 0.00 | 45 | 1003.7 |
| 20260502015804 | 79 | 210 | 1.7 | 5.2 | 0.00 | 0.09 | 0.00 | 48 | 1003.5 |
| 20260502014304 | 77 | 195 | 1.7 | 6.1 | 0.00 | 0.11 | 0.00 | 48 | 1003.3 |
| 20260502012805 | 77 | 187 | 0.9 | 6.1 | 0.00 | 0.13 | 0.00 | 49 | 1003.3 |
| 20260502011306 | 77 | 196 | 4.3 | 6.1 | 0.00 | 0.17 | 0.00 | 50 | 1003.4 |
| 20260502005804 | 76 | 205 | 1.7 | 1.7 | 0.00 | 0.17 | 0.00 | 55 | 1003.4 |
| 20260502004304 | 75 | 180 | 1.7 | 1.7 | 0.00 | 0.18 | 0.00 | 55 | 1003.2 |
| 20260502002804 | 73 | 199 | 5.2 | 7.0 | 0.00 | 0.20 | 0.00 | 58 | 1003.1 |
| 20260502001305 | 72 | 199 | 1.7 | 8.7 | 0.00 | 0.31 | 0.00 | 57 | 1003.0 |
| 20260501235805 | 71 | 220 | 4.3 | 4.3 | 0.00 | 0.43 | 0.00 | 59 | 1003.2 |
| 20260501234306 | 70 | 233 | 4.3 | 7.0 | 0.00 | 0.53 | 0.00 | 61 | 1003.1 |
| 20260501232804 | 68 | 197 | 2.6 | 7.0 | 0.00 | 0.61 | 0.00 | 65 | 1002.7 |
| 20260501231305 | 68 | 223 | 2.6 | 4.3 | 0.00 | 0.71 | 0.00 | 65 | 1002.4 |
| 20260501225805 | 67 | 222 | 0.9 | 1.7 | 0.00 | 0.80 | 0.00 | 63 | 1002.2 |
| 20260501224305 | 65 | 179 | 1.7 | 2.6 | 0.00 | 0.83 | 0.00 | 65 | 1001.9 |
| 20260501222806 | 64 | 235 | 0.0 | 1.7 | 0.00 | 0.87 | 0.00 | 65 | 1001.7 |
| 20260501221304 | 64 | 320 | 0.0 | 0.0 | 0.00 | 0.93 | 0.00 | 66 | 1001.6 |
| 20260501215805 | 64 | 327 | 0.0 | 0.0 | 0.00 | 0.98 | 0.00 | 65 | 1001.2 |
| 20260501214304 | 64 | 13 | 2.6 | 5.2 | 0.00 | 1.00 | 0.00 | 65 | 1000.8 |
| 20260501212804 | 64 | 10 | 1.7 | 2.6 | 0.00 | 1.06 | 0.00 | 65 | 1000.4 |
| 20260501211305 | 64 | 7 | 5.2 | 8.7 | 0.00 | 1.12 | 0.00 | 65 | 1000.2 |
| 20260501205806 | 64 | 27 | 6.1 | 11.3 | 0.00 | 1.13 | 0.00 | 64 | 999.9 |
| 20260501204304 | 64 | 18 | 2.6 | 4.3 | 0.00 | 1.14 | 0.00 | 64 | 999.7 |
| 20260501202805 | 63 | 336 | 2.6 | 4.3 | 0.00 | 1.14 | 0.00 | 66 | 999.2 |
| 20260501201305 | 61 | 353 | 1.7 | 2.6 | 0.00 | 1.14 | 0.00 | 73 | 999.1 |
| 20260501195806 | 58 | 275 | 0.0 | 0.9 | 0.00 | 1.15 | 0.00 | 82 | 998.8 |
| 20260501194304 | 58 | 260 | 0.9 | 1.7 | 0.00 | 1.17 | 0.00 | 83 | 998.6 |
| 20260501192805 | 58 | 271 | 0.9 | 1.7 | 0.00 | 1.19 | 0.00 | 81 | 998.2 |
| 20260501191305 | 58 | 223 | 0.9 | 1.7 | 0.00 | 1.23 | 0.00 | 81 | 997.9 |
| 20260501185805 | 59 | 216 | 0.0 | 0.0 | 0.00 | 1.24 | 0.00 | 80 | 997.4 |
| 20260501184305 | 59 | 255 | 0.9 | 2.6 | 0.00 | 1.25 | 0.00 | 80 | 996.7 |
| 20260501182806 | 59 | 250 | 1.7 | 4.3 | 0.00 | 1.28 | 0.00 | 80 | 996.4 |
| 20260501181304 | 59 | 205 | 4.3 | 7.8 | 0.00 | 1.29 | 0.00 | 79 | 995.7 |
| 20260501175805 | 59 | 231 | 2.6 | 6.1 | 0.00 | 1.30 | 0.00 | 79 | 995.4 |
| 20260501174306 | 59 | 203 | 0.9 | 6.1 | 0.00 | 1.30 | 0.00 | 78 | 995.4 |
| 20260501172804 | 59 | 207 | 2.6 | 7.0 | 0.00 | 1.30 | 0.00 | 78 | 995.1 |
| 20260501171842 | 60 | 242 | 2.6 | 10.4 | 0.00 | 1.30 | 0.00 | 78 | 994.9 |
| 20260501171305 | 60 | 229 | 4.3 | 7.0 | 0.00 | 1.31 | 0.00 | 77 | 994.7 |
| 20260501165805 | 60 | 202 | 2.6 | 6.1 | 0.00 | 1.31 | 0.00 | 77 | 994.6 |
| 20260501164304 | 60 | 243 | 2.6 | 7.0 | 0.00 | 1.32 | 0.00 | 78 | 994.7 |
| 20260501162805 | 60 | 215 | 1.7 | 4.3 | 0.00 | 1.33 | 0.00 | 79 | 994.6 |
| 20260501161846 | 59 | 225 | 4.3 | 5.2 | 0.00 | 1.33 | 0.00 | 81 | 994.4 |
| 20260501161305 | 59 | 210 | 2.6 | 10.4 | 0.00 | 1.33 | 0.00 | 82 | 994.5 |